Simultaneous Nadir Overpasses (SNOs) Predictions

Prediction of SNOs between NOAA-15 and METOP-C Satellite Orbit:

Table of predicted SNOs for the next 14.0 days since TLE Epoch: 4/5/2019
Index Date (NOAA-15) Time (NOAA-15) Lat,Lon (NOAA-15) SZA (NOAA-15 ) Date (METOP-C) Time (METOP-C) Lat,Lon (METOP-C) SZA (METOP-C ) Distance(km) Time Diff (sec)
1 04/10/2019 03:21:32 -80.78, -17.65 105.61 04/10/2019 03:20:20 -80.78, -17.56 105.63 1.52 72
2 04/10/2019 04:12:03 80.77, 149.89 74.39 04/10/2019 04:11:01 80.78, 149.87 74.38 1.20 62
3 04/10/2019 05:02:35 -80.79, -42.98 105.64 04/10/2019 05:01:42 -80.77, -43.03 105.67 2.01 53
4 04/10/2019 05:53:06 80.78, 124.55 74.36 04/10/2019 05:52:23 80.78, 124.40 74.33 2.70 43
5 04/10/2019 06:43:38 -80.79, -68.31 105.66 04/10/2019 06:43:03 -80.78, -68.15 105.67 2.87 35
6 04/10/2019 07:34:09 80.78, 99.21 74.34 04/10/2019 07:33:44 80.79, 99.28 74.34 1.42 25
7 04/10/2019 08:24:41 -80.79, -93.64 105.69 04/10/2019 08:24:25 -80.78, -93.62 105.71 2.05 16
8 04/10/2019 09:15:12 80.79, 73.87 74.31 04/10/2019 09:15:06 80.78, 73.81 74.29 1.29 6
9 04/10/2019 10:05:43 -80.78,-118.62 105.71 04/10/2019 10:05:46 -80.79,-118.74 105.71 2.42 3
10 04/10/2019 10:56:15 80.79, 48.53 74.28 04/10/2019 10:56:27 80.79, 48.69 74.30 2.74 12
11 04/10/2019 11:46:46 -80.78,-143.95 105.73 04/10/2019 11:47:07 -80.80,-143.86 105.70 2.57 21
12 04/10/2019 12:37:18 80.79, 23.20 74.25 04/10/2019 12:37:49 80.79, 23.22 74.26 0.97 31
13 04/10/2019 13:27:49 -80.79,-169.29 105.76 04/10/2019 13:28:29 -80.79,-169.33 105.75 1.14 40
14 04/10/2019 14:18:21 80.80, -2.14 74.22 04/10/2019 14:19:11 80.78, -2.26 74.21 2.98 50
15 04/10/2019 15:08:52 -80.79, 165.38 105.79 04/10/2019 15:09:51 -80.79, 165.20 105.79 3.33 59
16 04/10/2019 15:59:24 80.80, -27.48 74.19 04/10/2019 16:00:32 80.79, -27.38 74.22 2.26 68




NCC Satellite Simultaneous Nadir Overpasses (SNOs) Prediction Service
